• en France
  • Liste des pays
  • À 7 jours
  • Température de l'eau
  • Carte satellitaire
  • Carte météo
  • Widgets météo
  • user-avatar
    Se connecter

    Météo par heure à Chernaya Rechka

    Ce jour, 22 Mai, Mardi

    Heure Température Précipitation Vent Pression Humidité
    00:00 +12°C° 0 mm 4 m/s 757 mmHg 67%
    01:00 +12°C° 0 mm 4 m/s 757 mmHg 66%
    02:00 +12°C° 0 mm 4 m/s 757 mmHg 66%
    03:00 +12°C° 0 mm 4 m/s 757 mmHg 65%
    04:00 +12°C° 0 mm 4 m/s 757 mmHg 66%
    05:00 +11°C° 0 mm 4 m/s 758 mmHg 68%
    06:00 +10°C° 0 mm 5 m/s 758 mmHg 70%
    07:00 +11°C° 0,4 mm 4 m/s 758 mmHg 74%
    08:00 +11°C° 0,4 mm 4 m/s 758 mmHg 78%
    09:00 +12°C° 0,4 mm 4 m/s 758 mmHg 81%
    10:00 +13°C° 0,1 mm 4 m/s 758 mmHg 80%
    11:00 +14°C° 0,1 mm 4 m/s 758 mmHg 78%
    12:00 +15°C° 0,1 mm 4 m/s 758 mmHg 76%
    13:00 +17°C° 0 mm 4 m/s 758 mmHg 74%
    14:00 +19°C° 0 mm 5 m/s 757 mmHg 72%
    15:00 +21°C° 0 mm 5 m/s 757 mmHg 70%
    16:00 +20°C° 0 mm 4 m/s 757 mmHg 72%
    17:00 +20°C° 0 mm 4 m/s 757 mmHg 74%
    18:00 +20°C° 0 mm 3 m/s 757 mmHg 76%
    19:00 +19°C° 0,1 mm 3 m/s 757 mmHg 79%
    20:00 +18°C° 0,1 mm 2 m/s 756 mmHg 82%
    21:00 +17°C° 0,1 mm 2 m/s 756 mmHg 86%
    22:00 +17°C° 0,2 mm 2 m/s 756 mmHg 87%
    23:00 +16°C° 0,2 mm 2 m/s 756 mmHg 89%

    Demain, 23 Mai, Mercredi

    Heure Température Précipitation Vent Pression Humidité
    00:00 +16°C° 0,2 mm 2 m/s 756 mmHg 91%
    01:00 +15°C° 0,1 mm 2 m/s 756 mmHg 92%
    02:00 +15°C° 0,1 mm 2 m/s 756 mmHg 93%
    03:00 +15°C° 0,1 mm 2 m/s 756 mmHg 93%
    04:00 +15°C° 0,4 mm 2 m/s 756 mmHg 93%
    05:00 +15°C° 0,4 mm 2 m/s 756 mmHg 93%
    06:00 +15°C° 0,4 mm 2 m/s 756 mmHg 93%
    07:00 +17°C° 0,3 mm 2 m/s 756 mmHg 89%
    08:00 +18°C° 0,3 mm 2 m/s 756 mmHg 86%
    09:00 +19°C° 0,3 mm 2 m/s 756 mmHg 82%
    10:00 +20°C° 0 mm 2 m/s 756 mmHg 79%
    11:00 +21°C° 0 mm 2 m/s 756 mmHg 75%
    12:00 +22°C° 0 mm 3 m/s 755 mmHg 72%
    13:00 +24°C° 0 mm 3 m/s 755 mmHg 71%
    14:00 +24°C° 0 mm 3 m/s 755 mmHg 71%
    15:00 +24°C° 0 mm 3 m/s 755 mmHg 70%
    16:00 +24°C° 0,3 mm 2 m/s 754 mmHg 72%
    17:00 +24°C° 0,3 mm 2 m/s 754 mmHg 74%
    18:00 +24°C° 0,3 mm 2 m/s 754 mmHg 77%
    19:00 +21°C° 0,3 mm 2 m/s 754 mmHg 81%
    20:00 +20°C° 0,3 mm 2 m/s 754 mmHg 86%
    21:00 +19°C° 0,3 mm 1 m/s 754 mmHg 90%
    22:00 +18°C° 0,1 mm 1 m/s 754 mmHg 91%
    23:00 +18°C° 0,1 mm 1 m/s 753 mmHg 92%

    Après-demain, 24 Mai, Jeudi

    Heure Température Précipitation Vent Pression Humidité
    00:00 +16°C° 0,1 mm 1 m/s 753 mmHg 92%
    01:00 +16°C° 0 mm 1 m/s 753 mmHg 93%
    02:00 +16°C° 0 mm 1 m/s 753 mmHg 93%
    03:00 +14°C° 0 mm 0 m/s 753 mmHg 93%
    04:00 +15°C° 0,1 mm 0 m/s 753 mmHg 92%
    05:00 +16°C° 0,1 mm 0 m/s 752 mmHg 91%
    06:00 +18°C° 0,1 mm 1 m/s 752 mmHg 89%
    07:00 +20°C° 0,1 mm 1 m/s 752 mmHg 85%
    08:00 +21°C° 0,1 mm 1 m/s 752 mmHg 80%
    09:00 +23°C° 0,1 mm 1 m/s 752 mmHg 76%
    10:00 +24°C° 0,2 mm 1 m/s 752 mmHg 71%
    11:00 +25°C° 0,2 mm 1 m/s 752 mmHg 66%
    12:00 +25°C° 0,2 mm 1 m/s 752 mmHg 61%
    13:00 +26°C° 0,4 mm 1 m/s 751 mmHg 60%
    14:00 +26°C° 0,4 mm 1 m/s 751 mmHg 59%
    15:00 +26°C° 0,4 mm 1 m/s 751 mmHg 58%
    16:00 +25°C° 0,8 mm 1 m/s 750 mmHg 64%
    17:00 +24°C° 0,8 mm 1 m/s 750 mmHg 69%
    18:00 +24°C° 0,8 mm 2 m/s 750 mmHg 74%
    19:00 +21°C° 0,3 mm 2 m/s 750 mmHg 79%
    20:00 +19°C° 0,3 mm 2 m/s 751 mmHg 83%
    21:00 +18°C° 0,3 mm 2 m/s 751 mmHg 87%
    22:00 +17°C° 0 mm 3 m/s 751 mmHg 89%
    23:00 +17°C° 0 mm 3 m/s 751 mmHg 91%

    25 Mai, Vendredi

    Heure Température Précipitation Vent Pression Humidité
    00:00 +15°C° 0 mm 4 m/s 751 mmHg 93%
    01:00 +15°C° 0 mm 5 m/s 752 mmHg 93%
    02:00 +14°C° 0 mm 5 m/s 752 mmHg 94%
    03:00 +14°C° 0 mm 6 m/s 753 mmHg 94%
    04:00 +13°C° 0 mm 6 m/s 753 mmHg 92%
    05:00 +12°C° 0 mm 7 m/s 754 mmHg 89%
    06:00 +11°C° 0 mm 7 m/s 754 mmHg 86%
    07:00 +12°C° 0 mm 7 m/s 755 mmHg 80%
    08:00 +12°C° 0 mm 7 m/s 756 mmHg 74%
    09:00 +14°C° 0 mm 7 m/s 756 mmHg 68%
    10:00 +15°C° 0 mm 7 m/s 756 mmHg 64%
    11:00 +16°C° 0 mm 7 m/s 757 mmHg 59%
    12:00 +16°C° 0 mm 7 m/s 757 mmHg 55%
    13:00 +17°C° 0 mm 6 m/s 757 mmHg 54%
    14:00 +17°C° 0 mm 6 m/s 757 mmHg 52%
    15:00 +17°C° 0 mm 6 m/s 757 mmHg 51%
    16:00 +16°C° 0 mm 6 m/s 758 mmHg 54%
    17:00 +16°C° 0 mm 5 m/s 758 mmHg 57%
    18:00 +15°C° 0 mm 5 m/s 758 mmHg 59%
    19:00 +14°C° 0 mm 5 m/s 759 mmHg 61%
    20:00 +12°C° 0 mm 4 m/s 759 mmHg 63%
    21:00 +11°C° 0 mm 4 m/s 760 mmHg 65%
    22:00 +10°C° 0 mm 4 m/s 760 mmHg 65%
    23:00 +9°C° 0 mm 3 m/s 761 mmHg 66%

    26 Mai, Samedi

    Heure Température Précipitation Vent Pression Humidité
    00:00 +8°C° 0 mm 3 m/s 761 mmHg 67%
    01:00 +8°C° 0 mm 3 m/s 761 mmHg 68%
    02:00 +7°C° 0 mm 3 m/s 762 mmHg 69%
    03:00 +7°C° 0 mm 3 m/s 762 mmHg 70%
    04:00 +7°C° 0 mm 3 m/s 763 mmHg 70%
    05:00 +8°C° 0 mm 3 m/s 763 mmHg 70%
    06:00 +8°C° 0 mm 3 m/s 763 mmHg 70%
    07:00 +10°C° 0 mm 3 m/s 764 mmHg 64%
    08:00 +12°C° 0 mm 3 m/s 764 mmHg 58%
    09:00 +13°C° 0 mm 3 m/s 764 mmHg 52%
    10:00 +14°C° 0 mm 3 m/s 764 mmHg 49%
    11:00 +16°C° 0 mm 3 m/s 764 mmHg 47%
    12:00 +17°C° 0 mm 3 m/s 764 mmHg 45%
    13:00 +18°C° 0 mm 3 m/s 764 mmHg 45%
    14:00 +18°C° 0 mm 3 m/s 764 mmHg 44%
    15:00 +19°C° 0 mm 2 m/s 763 mmHg 44%
    16:00 +19°C° 0 mm 2 m/s 763 mmHg 47%
    17:00 +19°C° 0 mm 2 m/s 763 mmHg 50%
    18:00 +19°C° 0 mm 1 m/s 763 mmHg 53%
    19:00 +16°C° 0 mm 1 m/s 763 mmHg 58%
    20:00 +15°C° 0 mm 1 m/s 763 mmHg 62%
    21:00 +13°C° 0 mm 1 m/s 763 mmHg 67%
    22:00 +12°C° 0 mm 1 m/s 763 mmHg 69%
    23:00 +11°C° 0 mm 1 m/s 763 mmHg 71%

    27 Mai, Dimanche

    Heure Température Précipitation Vent Pression Humidité
    00:00 +10°C° 0 mm 2 m/s 763 mmHg 73%
    01:00 +9°C° 0 mm 2 m/s 764 mmHg 75%
    02:00 +10°C° 0 mm 1 m/s 764 mmHg 77%
    03:00 +10°C° 0 mm 1 m/s 764 mmHg 79%
    04:00 +10°C° 0 mm 1 m/s 764 mmHg 78%
    05:00 +11°C° 0 mm 1 m/s 764 mmHg 77%
    06:00 +12°C° 0 mm 1 m/s 764 mmHg 76%
    07:00 +13°C° 0 mm 1 m/s 764 mmHg 71%
    08:00 +15°C° 0 mm 2 m/s 763 mmHg 65%
    09:00 +17°C° 0 mm 2 m/s 763 mmHg 60%
    10:00 +18°C° 0 mm 2 m/s 763 mmHg 56%
    11:00 +19°C° 0 mm 2 m/s 763 mmHg 53%
    12:00 +19°C° 0 mm 2 m/s 762 mmHg 50%
    13:00 +20°C° 0 mm 2 m/s 762 mmHg 50%
    14:00 +20°C° 0 mm 2 m/s 762 mmHg 50%
    15:00 +21°C° 0 mm 3 m/s 761 mmHg 49%
    16:00 +20°C° 0 mm 2 m/s 761 mmHg 53%
    17:00 +20°C° 0 mm 2 m/s 761 mmHg 56%
    18:00 +20°C° 0 mm 2 m/s 760 mmHg 60%
    19:00 +18°C° 0 mm 2 m/s 760 mmHg 64%
    20:00 +16°C° 0 mm 1 m/s 760 mmHg 68%
    21:00 +15°C° 0 mm 1 m/s 760 mmHg 72%
    22:00 +14°C° 0 mm 1 m/s 760 mmHg 74%
    23:00 +13°C° 0 mm 2 m/s 760 mmHg 75%
    Voir plus